Back to catalog

STARLINK-30574

AliveCommunicationsVLEO
NORAD 58094·PAYLOAD·🇺🇸 United States

Launched Oct 18, 2023 from Cape Canaveral Space Force Station

Loading…

Next Passes (next 24 hours)

TLE

FreshSource: CelesTrak SupGP

Epoch: Sep 14, 2026, 22:02 UTC

1 58094C 23160V   26257.91854167  .00035268  00000+0  12776-2 0  2576
2 58094  42.9995  89.0344 0001424 272.6216 246.1313 15.27555515    13

Track STARLINK-30574 in real time with AllMySat

Download on the App Store